Wind_Speed
18 17 17 18 19 18 16 13 12 12 12 13 14 14 13 13 12 12 12 13 13 13 13 12 12 12 12 13 13 13 13 13 13 14 15 15 14 14 14 15 16 17 17 17 17 17 16 16 16 17 18 19 18 17 17 17 19 20 20 19 19 19 18
17 16 16 18 20 19 15 12 12 13 14 15 14 14 12 12 12 11 11 11 12 13 13 12 11 11 11 11 11 11 11 11 12 13 14 13 13 14 15 16 16 17 17 17 17 17 17 17 18 19 20 20 19 18 18 18 19 20 19 19 19 19 19
16 16 15 17 19 19 16 14 14 15 16 15 14 13 12 12 12 11 11 11 11 12 12 12 11 11 10 10 10 10 9 10 11 12 12 12 13 15 15 15 16 16 17 17 17 17 18 18 19 20 21 20 19 19 18 18 19 19 18 18 19 19 19
14 14 15 16 17 18 17 17 16 15 15 15 13 11 11 11 11 11 11 11 11 11 11 12 12 11 10 10 10 10 10 10 11 11 11 11 12 13 14 15 15 16 16 17 17 18 18 19 20 21 21 20 19 18 18 18 19 18 18 18 18 18 19
13 14 15 15 16 16 16 16 15 15 14 13 11 10 10 10 10 11 11 11 11 11 11 11 11 11 11 11 11 11 11 11 12 12 11 11 11 12 14 15 15 15 16 17 17 18 19 19 20 21 21 20 19 18 17 18 18 17 17 18 18 18 19
12 13 14 15 14 15 16 16 15 14 14 13 11 10 10 10 11 11 11 12 11 10 9 10 11 10 10 10 10 11 11 11 11 11 11 11 11 12 13 14 15 15 15 16 17 18 18 19 19 20 19 19 18 18 17 17 17 17 17 18 18 19 20
12 13 14 14 14 15 16 15 14 14 13 12 12 11 11 11 11 12 12 12 12 10 9 9 9 9 9 8 9 9 10 10 10 10 10 10 11 12 12 13 14 15 16 16 16 17 18 19 19 19 18 18 18 17 17 17 18 18 18 18 19 20 20
11 11 10 11 13 14 14 13 13 13 13 12 12 11 11 12 12 13 12 12 13 12 12 11 11 10 10 10 10 10 10 10 10 10 10 10 11 11 12 13 14 15 16 16 16 17 18 19 19 19 18 18 18 18 18 18 19 19 19 20 20 20 21
10 9 8 9 12 13 13 13 12 13 12 11 11 11 11 11 12 13 13 13 13 14 14 14 13 13 13 13 13 13 13 12 12 11 11 11 11 12 12 13 14 15 16 16 17 17 18 19 19 18 18 18 19 19 19 19 20 20 20 21 21 22 22
11 10 10 10 12 14 14 14 13 13 12 11 10 10 10 10 10 10 11 13 13 13 13 14 14 14 15 15 15 14 14 13 13 12 12 12 13 13 13 14 14 15 15 16 17 17 18 19 19 18 18 19 20 20 20 20 21 21 21 22 22 23 23
13 13 13 12 14 15 14 13 13 13 12 10 10 9 9 9 8 7 8 10 12 12 13 13 13 13 14 14 14 14 13 13 13 13 13 13 14 14 15 15 15 15 15 16 17 17 18 19 19 19 19 20 20 21 21 21 21 22 22 22 23 23 24
14 14 14 13 14 14 13 12 12 12 11 10 10 9 8 8 8 8 7 9 11 12 12 12 11 11 11 12 12 12 12 13 13 13 13 14 14 15 15 16 16 16 16 17 18 18 19 19 19 19 20 20 21 21 21 21 21 21 21 21 22 22 23
15 15 14 14 14 14 13 13 12 12 11 12 12 11 10 10 10 10 9 10 11 11 11 11 11 10 10 10 10 10 11 11 12 12 12 13 14 14 15 15 16 16 17 18 19 19 20 20 20 20 20 21 21 21 21 21 21 21 21 20 21 22 23
16 16 16 16 15 15 14 14 14 14 14 15 15 15 14 13 13 13 12 12 12 11 11 11 11 11 10 10 10 11 11 11 11 11 12 12 13 14 14 15 15 16 17 17 18 18 19 20 20 20 21 21 21 21 21 22 22 22 21 21 22 23 24
15 15 17 17 17 17 16 16 16 16 16 17 18 18 17 16 16 15 15 14 13 12 12 12 12 12 12 11 11 11 11 11 11 11 11 12 12 13 13 14 14 15 16 16 17 17 18 19 19 20 20 21 21 21 22 22 23 23 23 23 23 23 23
15 15 16 17 18 18 18 17 17 17 18 19 19 19 18 17 17 16 16 15 14 13 13 13 13 13 12 12 12 12 11 11 11 10 10 10 11 11 12 13 13 14 15 15 16 17 17 18 19 20 20 21 21 21 22 22 22 23 23 23 23 23 23
17 17 16 16 17 19 19 19 18 17 18 19 19 18 17 17 17 17 16 16 15 14 13 13 13 13 13 13 13 12 11 11 10 10 10 10 10 11 12 12 13 13 14 15 16 16 17 17 18 19 19 20 20 20 21 21 21 21 22 22 22 22 22
19 19 18 18 18 19 20 20 18 17 18 18 18 18 17 17 17 17 16 16 15 14 14 14 15 15 15 14 14 13 12 11 11 10 11 11 12 12 13 13 14 14 15 15 15 15 15 16 16 16 17 17 18 19 19 19 20 19 19 19 20 20 21
19 20 20 20 20 20 20 20 19 18 18 18 18 18 18 18 18 18 17 16 15 15 16 16 17 17 16 16 15 14 13 13 12 12 12 12 13 13 13 14 14 15 15 15 15 15 15 15 15 15 15 16 16 17 18 18 18 18 18 18 19 20 21
19 19 20 20 20 20 20 21 21 20 19 18 17 19 20 20 19 19 18 18 17 17 18 18 18 18 17 17 17 16 15 14 13 13 13 13 13 14 14 15 15 16 16 16 16 16 16 16 15 15 15 15 16 16 17 17 17 18 18 19 20 21 22
19 17 17 18 20 20 20 21 22 22 21 20 19 20 21 21 20 20 20 20 20 19 19 19 19 18 18 17 17 16 16 15 14 14 14 14 15 15 16 16 17 17 18 18 17 17 16 16 16 16 16 16 16 17 18 19 20 20 21 21 22 23 23
19 18 18 19 20 21 22 22 23 23 24 23 21 21 21 22 22 22 22 22 22 21 21 20 20 19 18 17 17 17 16 15 15 15 15 16 16 17 18 18 19 18 18 18 17 17 16 16 15 15 15 15 16 16 17 18 19 20 21 22 22 23 23
21 20 20 20 20 21 21 22 23 23 24 25 23 22 22 23 24 24 24 24 23 23 22 22 22 21 20 19 18 18 18 17 17 17 17 18 19 19 20 20 20 20 19 19 19 18 18 17 16 16 15 16 16 16 17 17 17 18 19 20 21 22 23
22 21 20 20 20 19 20 22 23 23 24 25 25 23 23 25 26 26 26 25 24 24 24 23 23 22 21 21 20 20 20 20 20 20 20 21 21 22 22 22 22 22 21 22 22 21 21 20 19 18 18 18 18 19 19 19 19 19 19 20 22 22 23
21 21 20 20 19 19 21 23 24 24 25 25 25 25 25 26 27 27 26 25 25 26 26 25 24 23 22 22 22 22 23 23 24 24 24 24 24 25 25 24 24 24 24 24 25 25 24 23 23 22 22 21 21 21 21 22 22 22 23 23 23 24 24
21 20 21 22 22 22 23 24 26 27 27 27 26 26 26 27 28 28 27 27 27 27 26 25 25 25 25 24 24 25 25 26 26 26 27 27 27 27 27 27 27 26 27 27 28 28 28 27 27 27 27 26 25 24 24 24 25 25 26 25 25 26 27
23 22 22 23 23 23 24 25 27 28 28 28 27 27 27 27 28 28 28 28 27 27 27 27 28 28 28 28 28 28 28 29 29 29 29 30 30 30 30 30 30 30 31 31 31 32 32 32 32 32 33 33 32 30 30 29 29 29 28 28 28 30 31
23 24 24 24 24 24 24 25 26 28 28 28 28 28 29 28 27 27 27 27 28 29 30 31 31 31 31 31 30 31 31 31 31 32 32 32 32 32 32 33 33 33 34 34 35 36 36 37 37 38 38 39 39 39 38 37 37 35 33 32 33 34 35
22 23 24 23 23 24 24 24 26 27 28 28 28 28 28 27 26 27 28 29 31 32 33 34 34 34 34 33 33 33 33 33 33 34 34 35 35 35 36 36 36 36 37 37 38 39 39 40 41 42 42 43 44 44 44 44 44 43 41 39 37 37 38
22 23 23 22 23 25 25 25 26 28 29 30 30 29 29 29 30 31 31 32 34 35 36 36 37 37 37 36 36 35 35 35 36 36 37 38 38 39 40 41 41 41 41 41 42 43 44 44 44 45 46 46 46 46 46 47 48 48 46 44 42 42 42
23 24 24 23 23 24 23 26 29 29 29 31 33 33 34 34 35 35 35 36 37 38 39 39 39 39 40 40 39 39 39 39 39 40 40 41 42 43 44 45 45 46 46 46 47 48 49 49 49 49 49 50 50 50 49 50 50 49 48 47 47 47 46
25 26 26 26 27 26 26 28 30 31 32 34 35 37 37 37 38 38 38 39 40 41 42 42 42 43 43 43 43 43 43 43 43 44 44 45 46 46 47 48 49 50 51 51 52 53 54 54 54 53 54 54 53 52 52 53 54 53 52 52 53 52 51
28 28 28 29 30 30 30 31 31 32 34 34 34 38 39 38 38 39 39 40 42 43 45 46 46 46 46 46 46 46 46 47 48 48 49 49 50 50 50 51 52 54 55 56 57 57 58 59 58 58 57 57 57 55 55 55 55 55 55 56 56 55 54
29 30 31 31 32 32 33 34 34 34 34 32 32 36 39 38 39 40 42 43 44 45 47 48 49 50 50 50 50 50 50 51 52 52 53 53 54 54 54 55 56 57 58 59 60 60 61 61 61 60 60 59 59 58 58 57 57 56 56 57 57 57 58
32 33 34 34 34 35 36 37 38 39 41 41 41 44 45 45 46 48 49 50 50 50 49 49 50 51 52 53 54 55 56 56 56 56 56 57 58 58 58 58 59 59 60 61 61 61 61 61 61 60 59 58 58 57 57 57 57 58 58 58 59 60 61
41 40 40 40 41 41 40 40 42 43 44 46 48 49 50 49 49 50 51 52 52 53 54 54 55 55 56 57 58 59 60 59 59 59 59 59 59 60 60 61 61 61 61 61 61 60 61 61 60 59 58 57 58 58 59 59 60 61 61 62 63 63 63
50 46 44 44 45 46 45 46 47 47 48 49 51 52 52 52 52 52 52 52 52 53 55 58 59 58 58 59 60 61 61 61 61 60 60 59 59 60 60 61 61 62 62 62 62 62 61 61 62 61 61 61 62 63 63 64 64 64 64 64 64 64 63
Wind_Direction
241 236 234 228 219 213 212 215 223 230 235 239 241 242 242 240 240 240 242 244 244 244 245 245 245 244 243 244 245 248 250 248 246 246 249 253 258 259 255 252 253 256 258 257 258 261 266 269 269 268 267 266 266 268 270 271 271 271 274 278 281 284 286
243 240 236 225 215 211 213 222 233 237 240 241 241 240 240 239 237 233 233 237 241 243 243 242 241 241 240 242 245 248 250 249 248 249 250 253 255 255 254 252 254 258 260 260 262 265 268 268 268 268 268 269 271 272 272 271 271 272 276 280 282 284 285
249 244 238 227 218 217 226 242 247 243 240 238 235 232 232 234 234 231 227 229 235 240 242 240 237 235 235 238 242 243 243 242 246 249 250 251 250 253 257 256 256 259 260 263 265 266 267 267 268 269 271 272 273 274 273 272 272 274 277 279 280 281 282
252 244 236 231 227 231 242 250 249 242 236 231 227 224 225 228 231 231 228 226 230 236 240 241 238 235 234 236 240 243 243 244 248 252 254 256 257 259 263 264 264 262 261 262 264 265 266 268 269 271 272 273 273 272 272 272 272 275 277 276 276 278 280
252 247 243 241 241 242 243 241 237 231 225 222 220 218 221 226 229 229 226 225 228 232 239 244 242 238 236 238 242 246 248 250 253 256 259 261 261 262 264 267 268 265 262 263 264 266 268 270 271 272 273 274 273 273 273 273 273 274 275 275 276 278 279
253 251 247 245 241 236 234 232 226 218 214 213 212 212 216 223 227 227 224 224 225 227 234 242 242 238 236 237 241 245 248 251 252 255 257 257 259 260 261 265 267 267 267 267 268 270 271 271 270 271 272 274 275 276 276 275 274 274 275 276 278 278 278
251 249 246 243 236 231 230 227 217 210 209 209 207 209 215 222 228 227 223 223 224 222 223 227 229 228 227 229 233 238 242 246 248 249 252 256 259 259 259 261 264 267 268 268 269 271 270 270 269 269 271 273 275 277 276 275 275 276 277 278 278 278 278
240 240 241 236 230 228 227 219 211 212 213 212 215 220 224 227 231 231 227 225 225 222 220 220 223 228 231 234 237 240 243 247 250 253 258 263 266 265 264 263 263 265 266 267 268 268 268 268 268 269 271 272 273 274 273 274 275 275 275 275 275 275 275
231 233 236 230 225 227 227 220 217 221 223 223 227 231 234 235 236 235 230 228 228 228 226 226 229 235 240 243 246 247 248 250 252 255 259 264 267 268 268 268 266 266 267 267 267 266 266 267 267 269 270 270 270 270 270 271 272 272 273 273 273 273 273
240 246 248 242 234 232 232 228 225 226 228 231 232 234 240 244 244 240 233 229 231 233 235 236 237 239 243 246 249 251 252 252 253 255 258 262 266 268 269 270 269 269 268 268 267 267 267 267 267 268 268 267 268 268 269 270 270 271 271 271 271 271 271
247 252 255 253 244 237 235 232 227 223 223 227 232 236 243 249 252 249 236 229 229 232 235 238 239 242 244 246 249 251 252 251 251 253 257 261 264 266 268 269 269 269 269 268 268 267 267 266 266 267 267 267 268 269 269 268 268 268 269 270 270 271 271
247 252 257 254 246 242 239 236 229 223 222 225 228 234 244 254 260 260 250 236 228 227 230 232 236 240 241 242 244 245 245 245 246 250 255 259 262 263 266 268 269 269 269 267 266 265 265 265 265 265 266 266 267 269 270 270 269 269 270 272 273 274 275
245 247 253 251 247 250 252 250 244 236 232 231 231 234 242 253 260 261 253 240 231 228 230 233 236 238 239 241 242 241 242 242 244 248 251 255 258 260 263 266 267 269 269 269 267 266 267 267 267 266 266 266 267 268 270 271 272 273 273 274 276 276 277
249 246 250 251 253 257 259 259 257 253 247 243 242 242 246 252 257 255 248 241 237 235 235 236 238 240 243 245 246 246 246 247 249 252 254 256 258 260 262 265 265 267 268 269 269 270 270 271 271 271 270 270 270 269 270 270 271 272 273 274 275 275 275
260 255 253 257 262 264 262 261 262 263 261 258 256 255 255 255 253 249 245 244 245 243 241 240 242 244 246 246 247 247 247 247 249 252 255 259 261 263 264 265 265 266 267 268 268 268 269 270 270 271 272 272 272 271 271 271 272 273 274 274 274 274 273
264 260 257 260 265 265 262 261 264 269 271 270 267 264 260 255 249 244 243 244 246 247 246 246 247 247 248 248 248 247 245 246 248 251 256 260 263 265 266 266 266 265 264 264 264 264 265 267 268 270 271 272 273 275 276 277 278 278 277 277 277 277 276
256 256 256 258 260 261 261 262 267 273 276 275 272 267 261 252 245 241 241 243 245 248 249 251 252 253 253 251 248 245 244 245 247 251 255 259 262 263 265 266 267 265 264 263 263 263 264 266 268 271 274 276 278 280 281 281 281 280 280 280 280 280 280
249 249 251 254 256 259 262 264 267 274 278 276 273 268 259 250 245 242 241 242 245 248 249 251 253 253 253 250 246 244 243 244 246 248 251 253 255 257 259 262 263 264 264 264 265 267 268 270 271 273 275 277 278 279 279 280 280 280 281 282 282 282 282
254 253 253 254 257 260 262 264 265 268 272 274 271 264 256 249 246 244 243 244 246 249 250 252 253 252 250 248 247 245 244 245 247 248 250 250 251 253 255 257 258 259 261 263 265 267 267 268 270 271 272 272 271 272 272 273 275 277 279 281 281 281 281
260 258 256 255 256 260 262 264 265 266 267 267 264 257 252 248 246 245 245 247 249 252 252 252 252 252 250 249 248 247 247 249 251 252 254 256 256 256 255 254 255 257 259 261 263 264 265 267 268 269 270 269 269 268 268 268 271 273 276 278 278 278 278
258 256 259 257 255 258 262 264 266 266 267 265 259 253 250 247 247 246 247 249 252 254 254 252 252 251 250 249 249 250 250 252 255 258 260 262 262 261 259 258 259 259 261 262 263 264 266 268 269 269 268 267 265 265 266 268 271 272 273 274 274 274 275
252 252 260 257 252 254 260 264 264 265 267 266 260 255 252 250 249 249 250 253 256 256 256 254 254 253 251 250 250 251 251 252 255 258 261 263 263 262 261 261 261 261 261 262 263 265 266 268 270 270 269 268 267 267 269 271 273 275 276 276 275 274 273
250 253 257 252 247 251 257 262 262 262 265 265 260 255 254 253 252 252 253 255 256 257 258 258 256 255 253 251 250 250 252 254 255 256 257 259 259 259 260 260 260 260 259 260 263 265 267 270 272 273 274 275 276 278 279 280 281 282 284 285 283 280 277
250 251 250 243 241 247 254 259 260 260 260 260 256 252 251 252 254 254 254 254 255 256 257 257 254 253 253 253 253 255 257 259 260 260 259 259 258 259 259 259 259 258 260 262 265 267 270 273 274 275 275 276 278 281 283 286 287 287 288 288 287 284 281
252 250 244 240 243 250 256 258 258 259 257 254 251 248 246 249 252 252 250 250 252 254 256 256 255 254 254 255 256 259 261 263 264 265 264 264 263 263 262 261 260 259 261 263 266 269 271 274 275 276 275 275 276 279 283 287 288 289 289 288 286 284 282
257 251 243 245 252 259 262 260 259 259 257 252 249 246 245 246 248 248 248 249 251 252 254 257 258 258 258 259 260 262 264 265 266 266 266 266 266 266 266 266 265 264 264 265 267 270 272 274 276 277 277 278 279 281 283 285 288 290 289 286 285 285 285
255 253 252 255 258 262 266 265 263 262 261 257 251 245 243 245 247 248 250 254 256 257 259 259 259 259 259 260 262 264 265 266 266 266 266 266 266 267 267 268 269 270 270 270 271 273 274 275 277 277 278 279 280 282 283 283 285 287 286 284 285 287 289
254 257 259 260 262 265 267 267 265 262 261 261 258 251 245 245 248 251 255 259 262 263 263 260 258 258 259 261 263 264 265 265 265 265 265 266 266 267 269 270 272 273 274 274 274 275 275 276 278 278 280 281 282 282 282 282 283 284 283 282 283 286 288
255 259 261 261 263 267 270 270 267 264 260 259 259 255 248 245 248 253 258 261 262 262 262 260 259 259 260 262 264 264 264 264 263 263 264 265 265 267 268 270 272 273 275 276 277 277 277 277 278 279 280 281 282 282 281 281 281 281 281 280 282 284 285
253 256 259 261 265 269 271 270 266 262 259 256 255 254 251 250 253 257 261 262 262 261 261 260 260 261 262 264 265 265 266 265 265 265 266 266 266 267 269 270 272 273 275 276 278 278 278 278 278 279 279 280 281 281 280 279 278 278 277 277 279 283 284
250 252 254 256 259 263 266 267 266 263 258 255 254 254 254 255 258 260 263 266 265 264 262 262 262 263 263 264 265 266 266 266 267 267 267 268 268 268 269 271 272 273 274 275 277 277 278 278 277 277 277 277 278 279 278 276 275 274 274 276 278 281 282
248 250 252 251 251 251 252 257 264 267 264 260 257 256 255 255 258 260 263 265 265 264 263 263 262 262 262 263 264 265 265 265 266 266 267 267 268 268 269 270 271 273 273 274 275 276 277 277 277 276 276 276 278 278 277 275 274 274 274 274 276 278 280
246 247 248 249 250 251 251 251 255 260 263 263 262 260 257 255 256 258 260 262 263 263 263 262 262 261 261 261 261 262 263 264 265 266 266 266 266 267 268 269 270 271 271 272 273 274 275 276 276 276 276 277 278 278 277 276 275 275 274 274 275 277 279
244 244 245 246 248 251 253 252 251 252 254 255 256 257 258 258 260 263 264 264 264 264 264 263 262 261 261 260 260 260 262 263 264 264 265 266 266 266 267 268 269 269 269 269 270 271 272 273 274 274 275 275 275 275 275 275 275 275 275 275 275 277 278
248 249 249 249 249 250 251 251 251 250 251 251 253 257 261 265 267 268 269 268 267 265 264 263 263 263 262 261 260 260 262 264 265 265 266 266 266 266 267 267 268 269 269 269 269 269 270 271 272 272 272 272 271 271 272 272 273 274 275 275 275 276 277
257 258 256 254 253 252 251 251 251 252 252 254 256 259 263 266 268 269 270 270 269 268 266 265 265 265 265 265 266 266 267 268 269 269 269 267 267 266 267 267 268 269 269 269 270 270 270 270 270 270 270 269 269 269 269 270 271 273 274 274 275 276 277
258 260 257 255 253 253 253 252 253 255 256 257 259 260 263 266 269 271 271 271 270 270 268 267 267 267 268 270 271 271 271 271 270 270 270 268 268 267 267 268 268 268 269 270 270 270 269 269 269 269 269 269 269 269 270 271 272 273 273 274 274 275 275
Height
5778 5779 5780 5780 5780 5781 5781 5782 5783 5784 5784 5785 5785 5786 5787 5787 5788 5788 5789 5790 5790 5791 5792 5792 5793 5794 5794 5795 5796 5797 5798 5798 5799 5800 5801 5802 5803 5803 5803 5804 5804 5804 5804 5804 5804 5805 5805 5805 5805 5804 5804 5804 5805 5806 5807 5806 5805 5805 5805 5805 5804 5803 5803
5777 5778 5778 5779 5779 5780 5781 5781 5782 5783 5783 5783 5784 5784 5785 5786 5786 5787 5787 5788 5789 5790 5790 5791 5792 5792 5793 5794 5795 5796 5796 5797 5798 5799 5800 5801 5802 5802 5802 5802 5802 5802 5803 5803 5803 5804 5803 5803 5803 5802 5802 5803 5804 5805 5805 5805 5804 5803 5804 5803 5802 5802 5801
5775 5776 5777 5777 5778 5779 5780 5781 5781 5781 5782 5782 5782 5783 5784 5784 5785 5785 5786 5786 5787 5788 5789 5790 5790 5791 5792 5792 5793 5794 5795 5796 5797 5798 5799 5800 5800 5800 5800 5801 5801 5801 5801 5802 5802 5802 5802 5801 5801 5801 5801 5802 5803 5803 5803 5803 5802 5802 5802 5802 5801 5800 5800
5774 5774 5775 5776 5777 5778 5779 5779 5780 5780 5780 5780 5781 5782 5782 5782 5783 5784 5784 5785 5785 5786 5787 5788 5789 5789 5790 5791 5792 5793 5794 5794 5795 5796 5797 5798 5799 5799 5799 5800 5800 5800 5800 5800 5800 5801 5800 5800 5800 5799 5800 5800 5801 5801 5801 5801 5800 5800 5800 5800 5799 5799 5799
5772 5772 5773 5774 5775 5776 5777 5777 5778 5778 5779 5779 5780 5780 5781 5781 5781 5782 5783 5783 5784 5784 5785 5786 5787 5788 5788 5789 5791 5791 5792 5793 5794 5795 5796 5797 5797 5798 5798 5798 5799 5799 5799 5799 5799 5799 5799 5799 5798 5798 5798 5799 5799 5799 5800 5799 5799 5799 5799 5798 5798 5798 5798
5770 5771 5771 5772 5773 5774 5774 5775 5776 5776 5777 5777 5778 5779 5779 5779 5780 5780 5781 5782 5782 5783 5784 5785 5785 5786 5787 5788 5789 5790 5791 5792 5792 5793 5794 5795 5795 5796 5797 5797 5797 5797 5797 5798 5798 5798 5798 5797 5797 5796 5796 5797 5797 5797 5797 5797 5797 5797 5797 5797 5797 5797 5797
5769 5769 5770 5771 5771 5772 5772 5773 5774 5775 5775 5776 5777 5777 5778 5778 5778 5779 5780 5781 5781 5782 5783 5784 5784 5785 5786 5787 5787 5788 5789 5790 5791 5791 5792 5793 5793 5794 5795 5795 5795 5795 5795 5796 5796 5796 5796 5795 5794 5794 5795 5795 5795 5795 5795 5795 5795 5795 5795 5795 5795 5795 5795
5767 5767 5768 5769 5770 5770 5771 5772 5773 5774 5774 5775 5775 5775 5776 5776 5777 5777 5778 5779 5780 5781 5782 5783 5784 5784 5785 5786 5786 5787 5788 5788 5789 5790 5790 5791 5791 5792 5792 5793 5793 5793 5793 5793 5794 5794 5793 5792 5792 5793 5793 5794 5793 5793 5793 5793 5793 5793 5793 5793 5793 5793 5793
5765 5766 5767 5768 5768 5769 5770 5771 5772 5772 5773 5773 5774 5774 5774 5774 5775 5776 5777 5778 5778 5780 5781 5782 5783 5783 5784 5784 5785 5786 5786 5787 5788 5788 5789 5789 5790 5790 5790 5791 5791 5791 5791 5791 5791 5791 5791 5791 5791 5792 5792 5792 5792 5792 5792 5791 5791 5791 5791 5791 5791 5791 5791
5764 5765 5766 5767 5767 5768 5769 5770 5771 5771 5771 5772 5773 5773 5773 5773 5774 5775 5776 5777 5777 5778 5779 5780 5781 5782 5782 5783 5783 5784 5785 5785 5786 5786 5787 5787 5788 5788 5788 5789 5789 5789 5790 5789 5789 5789 5789 5789 5790 5790 5790 5790 5790 5790 5790 5790 5790 5790 5789 5789 5789 5789 5789
5763 5764 5765 5766 5767 5767 5768 5768 5769 5770 5770 5771 5772 5772 5773 5773 5773 5774 5775 5776 5777 5777 5778 5778 5779 5779 5780 5781 5781 5782 5783 5784 5784 5784 5785 5785 5785 5786 5786 5787 5787 5787 5787 5787 5787 5787 5788 5788 5788 5789 5789 5789 5788 5788 5788 5789 5788 5788 5788 5788 5788 5788 5788
5761 5762 5763 5765 5766 5766 5767 5767 5768 5769 5770 5771 5771 5772 5772 5772 5773 5774 5775 5775 5776 5776 5776 5777 5777 5778 5778 5779 5780 5780 5781 5781 5782 5782 5783 5783 5783 5784 5784 5785 5785 5785 5785 5785 5786 5786 5786 5786 5787 5787 5787 5787 5787 5787 5787 5787 5787 5786 5786 5786 5786 5786 5786
5759 5760 5761 5763 5764 5765 5765 5766 5767 5768 5769 5770 5771 5771 5771 5772 5772 5773 5774 5774 5775 5775 5775 5776 5776 5776 5777 5777 5778 5778 5779 5779 5780 5780 5781 5781 5781 5782 5782 5783 5783 5784 5784 5784 5784 5784 5785 5785 5785 5785 5785 5785 5785 5785 5785 5785 5784 5784 5784 5784 5784 5784 5784
5758 5759 5760 5761 5762 5763 5763 5764 5765 5766 5768 5769 5769 5770 5770 5771 5772 5772 5773 5773 5774 5774 5775 5775 5775 5775 5776 5776 5777 5777 5777 5778 5778 5779 5779 5779 5780 5780 5781 5781 5781 5782 5782 5782 5782 5783 5783 5783 5783 5783 5783 5783 5783 5783 5783 5782 5782 5782 5782 5782 5782 5782 5782
5758 5758 5759 5760 5760 5761 5762 5763 5763 5765 5766 5767 5768 5768 5769 5769 5770 5771 5771 5772 5773 5773 5774 5774 5774 5775 5775 5775 5775 5775 5776 5776 5776 5777 5777 5778 5778 5778 5779 5779 5779 5780 5780 5780 5781 5781 5781 5781 5781 5781 5780 5781 5781 5781 5781 5780 5780 5780 5780 5780 5779 5779 5779
5756 5757 5758 5759 5759 5759 5760 5761 5761 5763 5764 5765 5766 5766 5767 5768 5768 5769 5770 5770 5771 5772 5772 5773 5773 5773 5774 5774 5774 5774 5774 5775 5775 5775 5775 5776 5776 5777 5777 5777 5778 5778 5779 5779 5779 5779 5779 5779 5779 5778 5778 5778 5778 5778 5779 5778 5778 5778 5778 5777 5777 5777 5777
5752 5753 5755 5756 5757 5758 5758 5759 5760 5761 5761 5762 5763 5764 5765 5766 5766 5767 5768 5768 5769 5770 5770 5771 5771 5772 5772 5772 5772 5772 5773 5773 5773 5774 5774 5774 5775 5775 5775 5776 5776 5776 5777 5777 5777 5777 5777 5777 5777 5777 5777 5776 5776 5776 5776 5776 5776 5775 5775 5775 5775 5774 5774
5749 5750 5751 5753 5754 5756 5756 5757 5758 5758 5759 5760 5761 5762 5763 5764 5765 5766 5766 5767 5767 5768 5769 5769 5769 5770 5770 5770 5770 5771 5771 5771 5772 5772 5773 5773 5773 5774 5774 5774 5774 5775 5775 5775 5775 5776 5776 5776 5776 5775 5775 5775 5774 5774 5774 5773 5773 5773 5773 5772 5772 5771 5771
5747 5747 5749 5750 5752 5753 5754 5755 5756 5756 5757 5757 5759 5760 5761 5762 5763 5764 5764 5765 5766 5766 5767 5767 5767 5767 5768 5768 5768 5769 5769 5769 5770 5770 5771 5771 5772 5772 5772 5773 5773 5773 5773 5773 5773 5774 5774 5774 5774 5774 5773 5773 5773 5772 5772 5772 5771 5771 5770 5770 5769 5769 5768
5744 5745 5746 5747 5749 5750 5751 5752 5753 5754 5754 5755 5757 5758 5759 5760 5761 5762 5762 5763 5764 5764 5765 5765 5765 5765 5765 5766 5766 5767 5767 5767 5768 5768 5769 5769 5770 5770 5771 5771 5771 5771 5771 5771 5771 5771 5771 5771 5771 5771 5771 5771 5771 5771 5770 5770 5770 5769 5769 5768 5767 5767 5766
5741 5742 5743 5745 5746 5747 5748 5749 5750 5751 5752 5753 5754 5755 5756 5758 5759 5759 5760 5761 5761 5762 5762 5762 5762 5763 5763 5763 5764 5765 5765 5766 5766 5767 5767 5767 5768 5768 5768 5769 5769 5769 5769 5769 5769 5769 5769 5769 5769 5768 5768 5768 5768 5768 5768 5767 5767 5767 5766 5766 5765 5765 5764
5739 5740 5741 5742 5743 5744 5745 5746 5748 5749 5750 5750 5752 5753 5754 5755 5756 5757 5758 5758 5759 5760 5760 5760 5760 5760 5761 5761 5762 5763 5763 5764 5764 5765 5765 5765 5765 5766 5766 5766 5766 5766 5766 5766 5766 5766 5766 5766 5766 5766 5766 5766 5765 5765 5765 5765 5765 5764 5764 5763 5763 5762 5762
5736 5738 5739 5740 5741 5742 5743 5744 5745 5747 5748 5748 5749 5751 5752 5753 5754 5755 5755 5756 5756 5757 5757 5758 5758 5758 5758 5759 5759 5760 5761 5761 5762 5762 5762 5763 5763 5763 5763 5764 5764 5764 5764 5763 5763 5763 5763 5763 5763 5763 5763 5762 5762 5762 5761 5761 5761 5760 5760 5760 5759 5759 5759
5734 5735 5736 5737 5738 5739 5740 5741 5742 5743 5744 5745 5746 5747 5748 5750 5751 5751 5752 5752 5753 5753 5754 5754 5754 5755 5755 5756 5756 5757 5758 5758 5759 5759 5759 5759 5760 5760 5760 5761 5761 5761 5761 5760 5760 5760 5759 5759 5759 5759 5758 5758 5758 5757 5757 5757 5756 5756 5756 5756 5755 5755 5755
5732 5733 5734 5735 5736 5737 5738 5738 5738 5739 5740 5741 5742 5743 5744 5745 5746 5747 5748 5749 5749 5749 5750 5750 5751 5751 5752 5752 5753 5754 5755 5755 5756 5756 5756 5756 5756 5757 5757 5757 5757 5757 5757 5756 5756 5756 5755 5755 5755 5755 5755 5754 5754 5753 5753 5752 5752 5752 5752 5752 5752 5751 5751
5729 5730 5731 5733 5734 5735 5735 5735 5736 5736 5736 5737 5738 5739 5740 5741 5742 5743 5744 5744 5745 5745 5746 5746 5747 5748 5748 5749 5750 5751 5751 5752 5752 5752 5752 5752 5753 5753 5753 5753 5753 5752 5752 5752 5751 5751 5751 5751 5751 5751 5751 5750 5750 5749 5748 5748 5748 5748 5748 5748 5748 5747 5747
5726 5726 5728 5730 5731 5732 5732 5733 5733 5733 5733 5734 5734 5735 5736 5737 5738 5739 5740 5740 5741 5741 5742 5742 5743 5744 5744 5745 5746 5746 5747 5747 5748 5748 5748 5748 5748 5748 5748 5748 5748 5747 5747 5747 5747 5747 5746 5746 5746 5746 5746 5745 5745 5745 5744 5743 5743 5744 5743 5743 5743 5742 5742
5723 5723 5725 5727 5728 5728 5729 5730 5730 5730 5731 5731 5732 5732 5733 5734 5735 5736 5736 5736 5737 5737 5738 5738 5739 5739 5740 5741 5741 5742 5742 5743 5743 5743 5743 5743 5743 5743 5743 5743 5743 5743 5742 5742 5742 5741 5741 5741 5741 5740 5740 5740 5740 5739 5739 5738 5738 5738 5738 5738 5738 5737 5736
5720 5720 5722 5724 5725 5725 5725 5726 5727 5727 5728 5728 5729 5729 5730 5731 5732 5732 5732 5732 5733 5733 5734 5734 5734 5735 5735 5736 5737 5737 5738 5738 5738 5738 5738 5738 5738 5739 5738 5738 5738 5738 5737 5737 5736 5736 5736 5735 5735 5735 5734 5734 5734 5734 5733 5732 5732 5732 5732 5732 5731 5731 5731
5717 5717 5719 5721 5721 5721 5722 5723 5723 5724 5725 5725 5726 5727 5727 5728 5728 5728 5728 5728 5728 5728 5729 5729 5729 5730 5730 5731 5731 5732 5732 5733 5733 5733 5733 5733 5733 5734 5734 5733 5733 5733 5733 5732 5732 5731 5730 5730 5730 5729 5729 5728 5728 5728 5727 5727 5726 5725 5725 5725 5725 5725 5725
5714 5714 5716 5718 5719 5719 5719 5719 5719 5720 5721 5722 5723 5723 5724 5724 5724 5724 5723 5723 5723 5723 5723 5724 5724 5724 5724 5725 5725 5726 5727 5727 5727 5727 5727 5727 5728 5728 5728 5727 5727 5727 5727 5726 5726 5725 5725 5724 5724 5724 5724 5723 5723 5723 5722 5721 5720 5720 5720 5719 5719 5719 5718
5710 5711 5712 5713 5715 5716 5717 5717 5717 5717 5717 5717 5718 5718 5719 5719 5719 5719 5719 5718 5717 5717 5718 5718 5719 5718 5718 5719 5719 5719 5720 5721 5721 5721 5721 5721 5721 5721 5721 5721 5720 5720 5720 5719 5719 5718 5717 5717 5717 5718 5718 5717 5717 5717 5716 5714 5713 5714 5714 5713 5713 5712 5712
5706 5706 5707 5708 5710 5711 5713 5714 5715 5714 5713 5712 5712 5712 5712 5713 5714 5714 5714 5714 5713 5712 5712 5712 5712 5712 5712 5712 5713 5713 5713 5714 5714 5714 5714 5714 5715 5715 5714 5714 5713 5712 5712 5712 5711 5710 5709 5708 5708 5709 5709 5709 5709 5709 5708 5706 5706 5707 5706 5706 5705 5705 5705
5701 5702 5702 5703 5705 5706 5707 5708 5709 5710 5709 5708 5707 5706 5706 5707 5708 5708 5708 5708 5708 5707 5706 5706 5705 5705 5705 5705 5706 5706 5706 5707 5707 5708 5707 5707 5707 5707 5707 5706 5705 5704 5704 5704 5704 5703 5702 5701 5700 5700 5701 5701 5701 5700 5700 5699 5698 5698 5697 5697 5697 5697 5697
5696 5697 5698 5699 5700 5701 5701 5702 5702 5703 5703 5702 5702 5701 5701 5701 5702 5702 5702 5702 5702 5701 5701 5700 5699 5698 5698 5698 5698 5699 5699 5699 5700 5700 5701 5700 5700 5700 5699 5699 5698 5696 5695 5695 5696 5695 5695 5693 5693 5693 5694 5694 5693 5692 5692 5691 5690 5690 5689 5689 5689 5689 5689
5691 5692 5693 5694 5695 5695 5696 5696 5697 5697 5697 5696 5696 5695 5695 5695 5695 5695 5695 5695 5695 5694 5694 5693 5692 5691 5690 5690 5690 5691 5691 5691 5691 5692 5692 5692 5692 5692 5691 5690 5690 5688 5687 5686 5686 5686 5686 5685 5685 5685 5685 5685 5684 5684 5683 5683 5683 5682 5682 5681 5681 5680 5680
5685 5686 5687 5688 5688 5689 5689 5690 5690 5690 5690 5690 5690 5689 5689 5688 5688 5688 5687 5687 5687 5687 5686 5686 5684 5683 5682 5682 5682 5681 5681 5682 5682 5682 5683 5683 5683 5683 5682 5682 5681 5680 5678 5677 5677 5676 5677 5677 5676 5676 5676 5675 5675 5674 5674 5675 5674 5673 5673 5672 5672 5672 5672